Showing default

OPS 9334 (DATS), 2865

Orbit data source: Space-Track

OPS 9334 (DATS), 2865 is a payload satellite owned by SAMSO (US) in GEO that was launched on Sat, 01 Jul 1967 UTC via a TITAN IIIC launch vehicle from the Air Force Eastern Test Range (AFETR). Payload-class satellites include a variety of spacecraft equipped with specific instruments for various scientific and technological missions. These include communications satellites like Starlink; space stations such as the ISS; scientific satellites like the Hubble; Earth observation satellites from companies like Planet Labs, Umbra, and HawkEye 360; GPS; miniature CubeSats for education and research; and military/defense satellites.

Loading next visibility...
Identifier
2865, 1967-066D
Orbit
GEO
Country
Flag of USUS
Related business
Manufacturer
Philco-Ford WDL
Mission
Non-operational Defense Communications
Bus & Motor
IDCSP, Unknown motor
Mass
68 kg wet, 68 kg dry
Launch date (UTC)
1967-07-01 (58 years ago)
Launch vehicle
TITAN IIIC
Launch site
Air Force Eastern Test Range (AFETR)
Object type
Payload
Rocket body
Debris
Shape & HBR
Poly, Unknown HBR
Radar Cross Section
0.926 m², Medium (>0.1 m² and < 1m²)

Expand to show TLE details & history
Last TLE update: 19 hours ago

TLE from 19 hours ago
0 OPS 9334 (DATS)
1 02865U 67066D   25242.22202775 -.00000104  00000-0  00000-0 0  9994
2 02865   2.0510 105.4963 0054347 209.5233   8.1134  1.09624787126972
Epoch: 2025-08-30T05:19Z
TLE epoch observation values (Epoch: 2025-08-30T05:19:43.197Z)
Latitude
-1.25661°
Longitude
-95.39201°
Altitude
33,138.096 km
Speed
3.185 km/s
True Right ascension
21h 32m 47s
True Declination
-1° 15' 19"
Sunlit
Object was in daylight at epoch
Visualization orbit readout
Latitude
Unknown
Longitude
Unknown
Altitude
Unknown
Speed
Unknown
Apparent Right ascension
Unknown
Apparent Declination
Unknown
Sunlit
N/A
Visualization observer readout
Local Sidereal Time
15:42:10
Azimuth
Unknown
Elevation
Unknown
Doppler factor
Unknown
Orbital elements
Apogee altitude
33,569.911 km
Perigee altitude
33,138.047 km
Semi-major axis
39,732.116 km
Eccentricity
0.00543
Inclination
2.051°
RAAN
105.4963°
Arg. of periapsis
209.5233°
True anomaly
8.20189°
Mean anomaly
8.1134°
Eccentric anomaly
8.15758°
Mean motion
0.27405 °/min
Orbital period
1,313.63 mins
BSTAR
0
Loading maneuver chart data...
Computing Atmospheric mass density...
Loading historical data...
Loading historical data...
Loading historical data...
Loading historical data...
Loading historical data...
Loading historical data...
Loading historical data...

Documentation

Showing up to 5 results
|